Location: Clermont
(50.2608°N, 4.3172°E)
Time: 16:02:49
(UTC+00:00)

Cosmos 1975 - Pass Details

Date: 13 August 2020
Orbit: 542 x 561 km, 82.5° (Epoch: 18 September)

Event Time Altitude Azimuth Distance (km) Brightness Sun altitude
Exits shadow 22:43:07 31° 65° (ENE) 986 4.1 -23.9°
Drops below altitude 10° 22:45:59 10° 26° (NNE) 1,848 6.1 -24.0°
Sets 22:48:18 0° 18° (NNE) 2,751 7.3 -24.2°
